| time (UTC) | temp F | wind direction | speed MPH | gust MPH | rain 1hr in | rain 24hr in | rain mn in | humidity % | barometer mb |
| 20260505035259 | 58 | 356 | 0.0 | 1.0 | 0.00 | 0.00 | 0.00 | 64 | 1011.5 |
| 20260505034757 | 58 | 148 | 0.0 | 0.0 | 0.00 | 0.00 | 0.00 | 66 | 1011.9 |
| 20260505034254 | 58 | 148 | 0.0 | 0.0 | 0.00 | 0.00 | 0.00 | 65 | 1011.5 |
| 20260505033750 | 58 | 136 | 0.0 | 0.0 | 0.00 | 0.00 | 0.00 | 64 | 1011.8 |
| 20260505033248 | 58 | 154 | 0.0 | 1.0 | 0.00 | 0.00 | 0.00 | 67 | 1011.5 |
| 20260505032746 | 58 | 152 | 0.0 | 0.0 | 0.00 | 0.00 | 0.00 | 65 | 1011.6 |
| 20260505032241 | 59 | 156 | 0.0 | 0.0 | 0.00 | 0.00 | 0.00 | 65 | 1011.6 |
| 20260505031739 | 59 | 154 | 0.0 | 0.0 | 0.00 | 0.00 | 0.00 | 63 | 1011.6 |
| 20260505031235 | 59 | 163 | 0.0 | 0.0 | 0.00 | 0.00 | 0.00 | 63 | 1011.3 |
| 20260505030732 | 60 | 159 | 0.0 | 0.0 | 0.00 | 0.00 | 0.00 | 61 | 1011.7 |
| 20260505030228 | 60 | 148 | 0.0 | 0.0 | 0.00 | 0.00 | 0.00 | 61 | 1011.5 |
| 20260505025724 | 60 | 173 | 0.0 | 0.0 | 0.00 | 0.00 | 0.00 | 60 | 1011.8 |
| 20260505025223 | 60 | 118 | 0.0 | 0.0 | 0.00 | 0.00 | 0.00 | 60 | 1011.5 |
| 20260505024720 | 60 | 146 | 0.0 | 0.0 | 0.00 | 0.00 | 0.00 | 61 | 1011.9 |
| 20260505024217 | 60 | 148 | 0.0 | 0.0 | 0.00 | 0.00 | 0.00 | 61 | 1011.7 |
| 20260505023715 | 61 | 244 | 0.0 | 0.0 | 0.00 | 0.00 | 0.00 | 61 | 1011.9 |
| 20260505023212 | 62 | 273 | 0.0 | 0.0 | 0.00 | 0.00 | 0.00 | 58 | 1012.1 |
| 20260505022709 | 61 | 125 | 1.0 | 2.0 | 0.00 | 0.00 | 0.00 | 59 | 1011.9 |
| 20260505022206 | 62 | 319 | 0.0 | 0.0 | 0.00 | 0.00 | 0.00 | 58 | 1011.7 |
| 20260505021703 | 62 | 156 | 0.0 | 1.0 | 0.00 | 0.00 | 0.00 | 58 | 1011.8 |
| 20260505021159 | 63 | 179 | 0.0 | 1.0 | 0.00 | 0.00 | 0.00 | 57 | 1011.9 |
| 20260505020655 | 62 | 99 | 1.0 | 2.0 | 0.00 | 0.00 | 0.00 | 58 | 1011.8 |
| 20260505020151 | 63 | 152 | 0.0 | 1.0 | 0.00 | 0.00 | 0.00 | 56 | 1012.2 |
| 20260505015648 | 64 | 124 | 0.0 | 0.0 | 0.00 | 0.00 | 0.00 | 55 | 1012.0 |
| 20260505015145 | 64 | 135 | 0.0 | 1.0 | 0.00 | 0.00 | 0.00 | 54 | 1011.8 |
| 20260505014642 | 64 | 124 | 0.0 | 0.0 | 0.00 | 0.00 | 0.00 | 53 | 1011.8 |
| 20260505014139 | 64 | 147 | 0.0 | 1.0 | 0.00 | 0.00 | 0.00 | 54 | 1011.9 |
| 20260505013636 | 63 | 152 | 0.0 | 0.0 | 0.00 | 0.00 | 0.00 | 56 | 1011.9 |
| 20260505013133 | 63 | 152 | 0.0 | 0.0 | 0.00 | 0.00 | 0.00 | 57 | 1011.9 |
| 20260505012632 | 63 | 161 | 0.0 | 0.0 | 0.00 | 0.00 | 0.00 | 58 | 1011.9 |
| 20260505012128 | 62 | 154 | 0.0 | 0.0 | 0.00 | 0.00 | 0.00 | 58 | 1012.0 |
| 20260505011624 | 61 | 156 | 0.0 | 0.0 | 0.00 | 0.00 | 0.00 | 60 | 1011.9 |
| 20260505011121 | 61 | 158 | 0.0 | 0.0 | 0.00 | 0.00 | 0.00 | 60 | 1011.7 |
| 20260505010616 | 60 | 157 | 0.0 | 0.0 | 0.00 | 0.00 | 0.00 | 61 | 1011.8 |
| 20260505010114 | 61 | 157 | 0.0 | 0.0 | 0.00 | 0.00 | 0.00 | 61 | 1011.6 |
| 20260505005610 | 61 | 158 | 0.0 | 0.0 | 0.00 | 0.00 | 0.00 | 59 | 1011.5 |
| 20260505005107 | 62 | 157 | 0.0 | 0.0 | 0.00 | 0.00 | 0.00 | 58 | 1011.3 |
| 20260505004604 | 62 | 159 | 0.0 | 0.0 | 0.00 | 0.00 | 0.00 | 58 | 1011.4 |
| 20260505004101 | 63 | 162 | 0.0 | 0.0 | 0.00 | 0.00 | 0.00 | 55 | 1011.5 |
| 20260505003558 | 64 | 168 | 0.0 | 0.0 | 0.00 | 0.00 | 0.00 | 54 | 1011.4 |
| 20260505003055 | 65 | 165 | 0.0 | 0.0 | 0.00 | 0.00 | 0.00 | 52 | 1011.3 |
| 20260505002550 | 65 | 256 | 1.0 | 1.0 | 0.00 | 0.00 | 0.00 | 52 | 1011.2 |
| 20260505002049 | 65 | 171 | 0.0 | 0.0 | 0.00 | 0.00 | 0.00 | 53 | 1011.2 |
| 20260505001546 | 66 | 216 | 0.0 | 0.0 | 0.00 | 0.00 | 0.00 | 50 | 1011.1 |
| 20260505001043 | 66 | 224 | 2.0 | 2.0 | 0.00 | 0.00 | 0.00 | 50 | 1011.4 |
| 20260505000540 | 67 | 195 | 0.0 | 0.0 | 0.00 | 0.00 | 0.00 | 48 | 1011.2 |
| 20260505000038 | 68 | 178 | 0.0 | 0.0 | 0.00 | 0.00 | 0.00 | 48 | 1011.1 |
| 20260504235534 | 68 | 203 | 1.0 | 2.0 | 0.00 | 0.00 | 0.00 | 47 | 1011.3 |
| 20260504235031 | 68 | 235 | 3.0 | 3.0 | 0.00 | 0.00 | 0.00 | 46 | 1011.2 |
| 20260504234528 | 68 | 232 | 3.0 | 3.0 | 0.00 | 0.00 | 0.00 | 46 | 1011.1 |
| 20260504234025 | 68 | 253 | 2.0 | 3.0 | 0.00 | 0.00 | 0.00 | 46 | 1011.1 |
| 20260504233520 | 69 | 231 | 3.0 | 3.0 | 0.00 | 0.00 | 0.00 | 45 | 1011.1 |
| 20260504233018 | 69 | 244 | 3.0 | 3.0 | 0.00 | 0.00 | 0.00 | 45 | 1011.1 |
| 20260504232514 | 70 | 101 | 3.0 | 5.0 | 0.00 | 0.00 | 0.00 | 45 | 1011.2 |
| 20260504232012 | 70 | 239 | 2.0 | 3.0 | 0.00 | 0.00 | 0.00 | 44 | 1011.0 |
| 20260504231509 | 70 | 210 | 3.0 | 3.0 | 0.00 | 0.00 | 0.00 | 43 | 1011.0 |
| 20260504231005 | 71 | 213 | 1.0 | 1.0 | 0.00 | 0.00 | 0.00 | 43 | 1011.0 |
| 20260504230501 | 71 | 252 | 2.0 | 5.0 | 0.00 | 0.00 | 0.00 | 44 | 1010.9 |
| 20260504230000 | 71 | 327 | 1.0 | 1.0 | 0.00 | 0.00 | 0.00 | 43 | 1011.0 |
| 20260504225456 | 71 | 198 | 3.0 | 6.0 | 0.00 | 0.00 | 0.00 | 44 | 1011.0 |
| 20260504224954 | 71 | 222 | 2.0 | 3.0 | 0.00 | 0.00 | 0.00 | 43 | 1011.1 |
| 20260504224450 | 71 | 275 | 2.0 | 3.0 | 0.00 | 0.00 | 0.00 | 43 | 1010.9 |
| 20260504223947 | 71 | 247 | 1.0 | 2.0 | 0.00 | 0.00 | 0.00 | 42 | 1011.0 |
| 20260504223443 | 71 | 288 | 3.0 | 5.0 | 0.00 | 0.00 | 0.00 | 42 | 1010.9 |
| 20260504222939 | 71 | 224 | 2.0 | 2.0 | 0.00 | 0.00 | 0.00 | 43 | 1010.9 |
| 20260504222437 | 72 | 279 | 2.0 | 2.0 | 0.00 | 0.00 | 0.00 | 42 | 1011.0 |
| 20260504221934 | 72 | 347 | 2.0 | 3.0 | 0.00 | 0.00 | 0.00 | 43 | 1011.1 |
| 20260504221431 | 71 | 235 | 3.0 | 5.0 | 0.00 | 0.00 | 0.00 | 43 | 1010.9 |
| 20260504220928 | 72 | 248 | 3.0 | 6.0 | 0.00 | 0.00 | 0.00 | 42 | 1011.2 |
| 20260504220425 | 72 | 129 | 3.0 | 3.0 | 0.00 | 0.00 | 0.00 | 43 | 1011.2 |
| 20260504215922 | 73 | 266 | 0.0 | 1.0 | 0.00 | 0.00 | 0.00 | 42 | 1011.1 |
| 20260504215419 | 73 | 41 | 5.0 | 9.0 | 0.00 | 0.00 | 0.00 | 43 | 1010.9 |
| 20260504214915 | 72 | 281 | 1.0 | 2.0 | 0.00 | 0.00 | 0.00 | 43 | 1011.0 |
| 20260504214412 | 72 | 142 | 4.0 | 6.0 | 0.00 | 0.00 | 0.00 | 42 | 1011.0 |
| 20260504213909 | 72 | 128 | 1.0 | 3.0 | 0.00 | 0.00 | 0.00 | 43 | 1010.8 |
| 20260504213404 | 72 | 230 | 2.0 | 3.0 | 0.00 | 0.00 | 0.00 | 44 | 1011.1 |
| 20260504212902 | 72 | 286 | 1.0 | 2.0 | 0.00 | 0.00 | 0.00 | 45 | 1011.0 |
| 20260504212357 | 72 | 273 | 1.0 | 1.0 | 0.00 | 0.00 | 0.00 | 44 | 1011.2 |
| 20260504211856 | 72 | 306 | 1.0 | 1.0 | 0.00 | 0.00 | 0.00 | 43 | 1011.1 |
| 20260504211351 | 71 | 213 | 2.0 | 2.0 | 0.00 | 0.00 | 0.00 | 45 | 1011.1 |
| 20260504210849 | 70 | 262 | 2.0 | 3.0 | 0.00 | 0.00 | 0.00 | 45 | 1011.3 |
| 20260504210346 | 71 | 344 | 1.0 | 2.0 | 0.00 | 0.00 | 0.00 | 45 | 1011.1 |
| 20260504205843 | 71 | 276 | 4.0 | 7.0 | 0.00 | 0.00 | 0.00 | 43 | 1010.9 |
| 20260504205341 | 72 | 201 | 3.0 | 5.0 | 0.00 | 0.00 | 0.00 | 43 | 1011.0 |
| 20260504204839 | 73 | 251 | 3.0 | 6.0 | 0.00 | 0.00 | 0.00 | 42 | 1011.0 |
| 20260504204337 | 73 | 231 | 2.0 | 5.0 | 0.00 | 0.00 | 0.00 | 42 | 1011.1 |
| 20260504203836 | 73 | 231 | 4.0 | 5.0 | 0.00 | 0.00 | 0.00 | 41 | 1011.1 |
| 20260504203332 | 73 | 330 | 3.0 | 5.0 | 0.00 | 0.00 | 0.00 | 44 | 1011.1 |
| 20260504202828 | 75 | 268 | 6.0 | 8.0 | 0.00 | 0.00 | 0.00 | 41 | 1010.9 |
| 20260504202326 | 74 | 239 | 2.0 | 3.0 | 0.00 | 0.00 | 0.00 | 41 | 1011.2 |
| 20260504201822 | 73 | 261 | 3.0 | 5.0 | 0.00 | 0.00 | 0.00 | 41 | 1011.3 |
| 20260504201320 | 73 | 286 | 3.0 | 3.0 | 0.00 | 0.00 | 0.00 | 42 | 1011.2 |
| 20260504200817 | 72 | 195 | 5.0 | 7.0 | 0.00 | 0.00 | 0.00 | 42 | 1011.1 |
| 20260504200313 | 73 | 75 | 2.0 | 3.0 | 0.00 | 0.00 | 0.00 | 42 | 1011.2 |
| 20260504195809 | 73 | 240 | 3.0 | 5.0 | 0.00 | 0.00 | 0.00 | 42 | 1011.4 |
| 20260504195305 | 72 | 215 | 7.0 | 8.0 | 0.00 | 0.00 | 0.00 | 42 | 1011.3 |
| 20260504194803 | 72 | 244 | 5.0 | 8.0 | 0.00 | 0.00 | 0.00 | 42 | 1011.4 |
| 20260504194259 | 72 | 276 | 5.0 | 7.0 | 0.00 | 0.00 | 0.00 | 41 | 1011.5 |
| 20260504193755 | 73 | 259 | 8.0 | 10.0 | 0.00 | 0.00 | 0.00 | 40 | 1011.4 |
| 20260504193252 | 73 | 198 | 6.0 | 7.0 | 0.00 | 0.00 | 0.00 | 42 | 1011.8 |
| 20260504192751 | 72 | 249 | 4.0 | 5.0 | 0.00 | 0.00 | 0.00 | 42 | 1011.6 |
| 20260504192248 | 72 | 233 | 5.0 | 8.0 | 0.00 | 0.00 | 0.00 | 41 | 1011.6 |
| 20260504191747 | 72 | 61 | 5.0 | 7.0 | 0.00 | 0.00 | 0.00 | 41 | 1011.7 |
| 20260504191243 | 72 | 154 | 4.0 | 6.0 | 0.00 | 0.00 | 0.00 | 42 | 1011.8 |
| 20260504190739 | 71 | 137 | 3.0 | 7.0 | 0.00 | 0.00 | 0.00 | 44 | 1011.9 |
| 20260504190236 | 72 | 199 | 3.0 | 3.0 | 0.00 | 0.00 | 0.00 | 42 | 1012.0 |
| 20260504185732 | 71 | 144 | 1.0 | 1.0 | 0.00 | 0.00 | 0.00 | 43 | 1012.0 |
| 20260504185229 | 72 | 306 | 10.0 | 14.0 | 0.00 | 0.00 | 0.00 | 42 | 1012.1 |
| 20260504184725 | 73 | 256 | 2.0 | 2.0 | 0.00 | 0.00 | 0.00 | 42 | 1012.2 |
| 20260504184221 | 71 | 264 | 3.0 | 3.0 | 0.00 | 0.00 | 0.00 | 45 | 1012.2 |
| 20260504183717 | 71 | 239 | 11.0 | 15.0 | 0.00 | 0.00 | 0.00 | 42 | 1012.2 |
| 20260504183214 | 70 | 271 | 6.0 | 7.0 | 0.00 | 0.00 | 0.00 | 42 | 1012.5 |
| 20260504182712 | 70 | 274 | 5.0 | 6.0 | 0.00 | 0.00 | 0.00 | 42 | 1012.4 |
| 20260504182209 | 71 | 222 | 7.0 | 9.0 | 0.00 | 0.00 | 0.00 | 42 | 1012.4 |
| 20260504181707 | 70 | 306 | 11.0 | 14.0 | 0.00 | 0.00 | 0.00 | 42 | 1012.4 |
| 20260504181204 | 70 | 298 | 10.0 | 13.0 | 0.00 | 0.00 | 0.00 | 42 | 1012.6 |
| 20260504180703 | 70 | 245 | 5.0 | 7.0 | 0.00 | 0.00 | 0.00 | 43 | 1012.6 |
| 20260504180201 | 70 | 257 | 7.0 | 9.0 | 0.00 | 0.00 | 0.00 | 43 | 1012.7 |
| 20260504175658 | 70 | 244 | 6.0 | 8.0 | 0.00 | 0.00 | 0.00 | 42 | 1012.9 |
| 20260504175155 | 70 | 225 | 2.0 | 3.0 | 0.00 | 0.00 | 0.00 | 44 | 1012.8 |
| 20260504174653 | 69 | 294 | 3.0 | 6.0 | 0.00 | 0.00 | 0.00 | 45 | 1013.0 |
| 20260504174150 | 69 | 268 | 3.0 | 5.0 | 0.00 | 0.00 | 0.00 | 45 | 1013.0 |
| 20260504173647 | 70 | 230 | 6.0 | 8.0 | 0.00 | 0.00 | 0.00 | 44 | 1013.1 |
| 20260504173144 | 69 | 309 | 3.0 | 5.0 | 0.00 | 0.00 | 0.00 | 42 | 1013.3 |
| 20260504172641 | 69 | 211 | 3.0 | 5.0 | 0.00 | 0.00 | 0.00 | 44 | 1013.1 |
| 20260504172137 | 69 | 255 | 7.0 | 9.0 | 0.00 | 0.00 | 0.00 | 42 | 1013.4 |
| 20260504171633 | 68 | 166 | 4.0 | 6.0 | 0.00 | 0.00 | 0.00 | 42 | 1013.6 |
| 20260504171131 | 69 | 213 | 5.0 | 8.0 | 0.00 | 0.00 | 0.00 | 44 | 1013.3 |
| 20260504170627 | 69 | 223 | 1.0 | 2.0 | 0.00 | 0.00 | 0.00 | 43 | 1013.5 |
| 20260504170125 | 69 | 243 | 5.0 | 6.0 | 0.00 | 0.00 | 0.00 | 43 | 1013.6 |
| 20260504151010 | 65 | 217 | 3.0 | 8.0 | 0.00 | 0.00 | 0.00 | 44 | 1014.9 |
| 20260504150507 | 65 | 304 | 6.0 | 7.0 | 0.00 | 0.00 | 0.00 | 43 | 1014.8 |
| 20260504140927 | 62 | 229 | 3.0 | 5.0 | 0.00 | 0.00 | 0.00 | 54 | 1015.0 |
| 20260504140424 | 61 | 230 | 4.0 | 6.0 | 0.00 | 0.00 | 0.00 | 54 | 1015.1 |
| 20260504130349 | 59 | 208 | 2.0 | 3.0 | 0.00 | 0.00 | 0.00 | 64 | 1015.6 |
| 20260504120312 | 52 | 196 | 3.0 | 3.0 | 0.00 | 0.00 | 0.00 | 65 | 1015.8 |
| 20260504110236 | 47 | 234 | 2.0 | 6.0 | 0.00 | 0.00 | 0.00 | 64 | 1015.8 |
| 20260504100159 | 46 | 103 | 0.0 | 2.0 | 0.00 | 0.00 | 0.00 | 67 | 1015.6 |
| 20260504090122 | 40 | 0 | 0.0 | 0.0 | 0.00 | 0.00 | 0.00 | 80 | 1015.7 |
| 20260504081552 | 41 | 44 | 0.0 | 0.0 | 0.00 | 0.00 | 0.00 | 78 | 1016.0 |
| 20260504081048 | 42 | 33 | 0.0 | 0.0 | 0.00 | 0.00 | 0.00 | 77 | 1015.8 |
| 20260504080545 | 42 | 47 | 0.0 | 0.0 | 0.00 | 0.00 | 0.00 | 74 | 1015.9 |
| 20260504050358 | 50 | 291 | 1.0 | 1.0 | 0.00 | 0.00 | 0.00 | 55 | 1015.8 |
| 20260504045855 | 50 | 245 | 1.0 | 2.0 | 0.00 | 0.00 | 0.00 | 56 | 1015.7 |
| 20260504045350 | 50 | 279 | 1.0 | 1.0 | 0.00 | 0.00 | 0.00 | 55 | 1015.8 |
| 20260504044847 | 50 | 235 | 2.0 | 3.0 | 0.00 | 0.00 | 0.00 | 55 | 1015.7 |
| 20260504044344 | 50 | 239 | 1.0 | 2.0 | 0.00 | 0.00 | 0.00 | 55 | 1015.6 |
| 20260504043842 | 50 | 233 | 1.0 | 1.0 | 0.00 | 0.00 | 0.00 | 55 | 1015.7 |
| 20260504043338 | 50 | 299 | 2.0 | 3.0 | 0.00 | 0.00 | 0.00 | 56 | 1015.7 |
| 20260504042836 | 50 | 241 | 4.0 | 6.0 | 0.00 | 0.00 | 0.00 | 55 | 1015.7 |
| 20260504042332 | 50 | 271 | 3.0 | 3.0 | 0.00 | 0.00 | 0.00 | 56 | 1015.5 |
| 20260504041828 | 50 | 220 | 3.0 | 3.0 | 0.00 | 0.00 | 0.00 | 55 | 1015.4 |
| 20260504041324 | 50 | 228 | 3.0 | 3.0 | 0.00 | 0.00 | 0.00 | 55 | 1015.5 |
| 20260504040821 | 50 | 240 | 2.0 | 3.0 | 0.00 | 0.00 | 0.00 | 55 | 1015.4 |
| 20260504040319 | 51 | 205 | 3.0 | 3.0 | 0.00 | 0.00 | 0.00 | 55 | 1015.3 |
| 20260504035814 | 51 | 236 | 1.0 | 2.0 | 0.00 | 0.00 | 0.00 | 55 | 1015.5 |